TimeAST,TemperatureF,Dew PointF,Humidity,Sea Level PressureIn,VisibilityMPH,Wind Direction,Wind SpeedMPH,Gust SpeedMPH,PrecipitationIn,Events,Conditions,WindDirDegrees,DateUTC
12:00 AM,35.6,32.0,87,29.50,15.0,SE,24.2,40.3,N/A,,Overcast,140,2014-01-26 04:00:00
12:38 AM,37.4,33.8,87,29.44,12.0,SE,26.5,36.8,N/A,Rain,Light Rain Showers,140,2014-01-26 04:38:00
12:52 AM,37.4,33.8,87,29.42,10.0,SE,25.3,43.7,N/A,Rain,Rain Showers,140,2014-01-26 04:52:00
1:00 AM,37.4,33.8,87,29.40,10.0,SE,29.9,41.4,N/A,Rain,Rain Showers,140,2014-01-26 05:00:00
1:18 AM,37.4,35.6,93,29.37,10.0,SE,25.3,34.5,N/A,Rain,Light Rain Showers,130,2014-01-26 05:18:00
2:00 AM,37,36,93,29.32,7,SE,27.6,,,Rain,Light Rain Showers,130,2014-01-26 06:00:00
2:00 AM,37.4,35.6,93,29.32,8.0,SE,27.6,40.3,N/A,Rain,Light Rain Showers,130,2014-01-26 06:00:00
3:00 AM,39.2,37.4,93,29.21,8.0,SE,26.5,43.7,N/A,Rain,Light Rain Showers,130,2014-01-26 07:00:00
4:00 AM,39.2,39.2,100,29.13,8.0,SSE,25.3,40.3,N/A,Rain,Light Rain Showers,150,2014-01-26 08:00:00
4:41 AM,39.2,39.2,100,29.12,6.0,SSE,27.6,38.0,N/A,Rain,Rain Showers,160,2014-01-26 08:41:00
5:00 AM,39.2,37.4,93,29.11,6.0,North,-9999.0,-,N/A,Rain,Rain Showers,0,2014-01-26 09:00:00
5:54 AM,37.4,35.6,93,29.10,8.0,South,12.7,18.4,N/A,Rain,Light Rain Showers,180,2014-01-26 09:54:00
6:00 AM,37.4,37.4,100,29.10,8.0,South,16.1,-,N/A,Rain,Light Rain Showers,190,2014-01-26 10:00:00
6:16 AM,37.4,37.4,100,29.10,8.0,SSW,13.8,-,N/A,Rain,Light Rain Showers,200,2014-01-26 10:16:00
6:32 AM,35.6,35.6,100,29.10,8.0,South,13.8,-,N/A,Rain,Light Rain Showers,190,2014-01-26 10:32:00
7:00 AM,37.4,35.6,93,29.08,10.0,South,16.1,-,N/A,Rain,Light Rain Showers,180,2014-01-26 11:00:00
8:00 AM,37,36,92,29.07,15,South,19.6,,,Rain,Light Rain Showers,180,2014-01-26 12:00:00
8:00 AM,37.4,35.6,93,29.07,15.0,South,19.6,-,N/A,,Overcast,180,2014-01-26 12:00:00
8:40 AM,37.4,33.8,87,29.07,12.0,SSW,18.4,28.8,N/A,Rain-Snow,Light Rain Showers,200,2014-01-26 12:40:00
9:00 AM,32.0,30.2,93,29.08,3.0,SW,24.2,38.0,N/A,Snow,Light Snow Showers,230,2014-01-26 13:00:00
9:15 AM,32.0,28.4,87,29.08,10.0,SW,23.0,41.4,N/A,Snow,Light Snow Showers,230,2014-01-26 13:15:00
10:00 AM,32.0,24.8,75,29.11,15.0,SW,24.2,42.6,N/A,,Scattered Clouds,230,2014-01-26 14:00:00
10:31 AM,32.0,24.8,75,29.13,3.0,SW,25.3,40.3,N/A,Snow,Light Snow Showers,230,2014-01-26 14:31:00
11:00 AM,30.2,21.2,69,29.17,15.0,West,20.7,39.1,N/A,,Mostly Cloudy,260,2014-01-26 15:00:00
12:00 PM,28.4,21.2,74,29.22,15.0,West,17.3,26.5,N/A,Snow,Light Snow Showers,260,2014-01-26 16:00:00
1:00 PM,26.6,15.8,64,29.25,15.0,WSW,20.7,28.8,N/A,Snow,Light Snow Showers,240,2014-01-26 17:00:00
2:00 PM,28,17,52,29.28,15,WSW,19.6,,,Snow,Light Snow Showers,240,2014-01-26 18:00:00
2:00 PM,28.4,17.6,64,29.28,15.0,SW,16.1,28.8,N/A,,Scattered Clouds,230,2014-01-26 18:00:00
2:52 PM,26.6,15.8,64,29.31,12.0,WSW,21.9,33.4,N/A,Snow,Light Snow Showers,240,2014-01-26 18:52:00
3:00 PM,26.6,17.6,69,29.31,15.0,SW,27.6,35.7,N/A,Snow,Light Snow Showers,230,2014-01-26 19:00:00
3:35 PM,24.8,17.6,74,29.35,10.0,West,23.0,36.8,N/A,Snow,Light Snow Showers,260,2014-01-26 19:35:00
4:00 PM,23.0,12.2,63,29.39,15.0,WSW,28.8,39.1,N/A,Snow,Light Snow Showers,250,2014-01-26 20:00:00
5:00 PM,17.6,8.6,68,29.45,15.0,West,13.8,29.9,N/A,,Scattered Clouds,260,2014-01-26 21:00:00
6:00 PM,12.2,-0.4,57,29.54,15.0,West,19.6,33.4,N/A,,Scattered Clouds,260,2014-01-26 22:00:00
7:00 PM,8.6,-0.4,67,29.62,15.0,West,18.4,26.5,N/A,,Scattered Clouds,260,2014-01-26 23:00:00
7:13 PM,8.6,-0.4,67,29.63,8.0,West,17.3,28.8,N/A,Snow,Light Snow Showers,270,2014-01-26 23:13:00
7:48 PM,6.8,-7.6,52,29.68,15.0,WSW,25.3,36.8,N/A,,Partly Cloudy,250,2014-01-26 23:48:00
8:00 PM,7,-7,35,29.69,15,West,21.9,,,Snow,Light Snow Showers,260,2014-01-27 00:00:00
8:00 PM,6.8,-7.6,52,29.69,15.0,West,21.9,34.5,N/A,,Partly Cloudy,260,2014-01-27 00:00:00
9:00 PM,5.0,-7.6,56,29.76,15.0,WSW,13.8,27.6,N/A,,Partly Cloudy,250,2014-01-27 01:00:00
10:00 PM,5.0,-7.6,56,29.81,15.0,WSW,21.9,31.1,N/A,,Scattered Clouds,250,2014-01-27 02:00:00
11:00 PM,5.0,-9.4,52,29.85,15.0,WSW,18.4,28.8,N/A,,Partly Cloudy,250,2014-01-27 03:00:00